This demonstration page uses our WeatherBlox Daily Observations layout. Learn more.

38.89511, -77.03637

Hourly Observations for September 29, 2015

Temp ( °F °C ) Dew Point ( °F °C ) Humidity (%) Winds ( mph kmh ) Pressure ( in mb ) Visibility ( mi km ) Precip ( " mm )
12:52 am 00:52 Mostly Cloudy 72 22 70 21 94 94 Calm 30.09 1019 10 16.09344 0 0
1:52 am 01:52 Mostly Cloudy 72 22 70 21 94 94 N 3 6 30.09 1019 10 16.09344 0 0
2:52 am 02:52 Cloudy 72 22 70 21 94 94 NNE 3 6 30.09 1019 10 16.09344 0 0
3:22 am 03:22 Cloudy 72 22 70 21 94 94 NNE 3 6 30.06 1018 10 16.09344 0 0
3:52 am 03:52 Cloudy 72 22 70 21 94 94 NE 5 7 30.06 1018 10 16.09344 0 0
4:10 am 04:10 Cloudy 72 22 70 21 94 94 NE 3 6 30.06 1018 10 16.09344 0 0
4:46 am 04:46 Cloudy 72 22 70 21 94 94 NNE 5 7 30.03 1017 10 16.09344 0 0
4:52 am 04:52 Cloudy 72 22 70 21 94 94 NNE 5 7 30.03 1017 10 16.09344 0 0
5:21 am 05:21 Cloudy 72 22 70 21 94 94 N 6 9 30.03 1017 10 16.09344 0 0
5:52 am 05:52 Cloudy 72 22 70 21 94 94 NE 6 9 30.03 1017 10 16.09344 0 0
6:03 am 06:03 Mostly Cloudy 72 22 70 21 94 94 NE 6 9 30.03 1017 10 16.09344 0 0
6:40 am 06:40 Cloudy 72 22 70 21 94 94 NE 5 7 30.03 1017 10 16.09344 0 0
6:52 am 06:52 Cloudy 72 22 70 21 94 94 NE 5 7 30.03 1017 10 16.09344 0 0
6:59 am 06:59 Cloudy 72 22 70 21 94 94 NE 5 7 30.03 1017 10 16.09344 0 0
7:52 am 07:52 Cloudy 73 23 70 21 89 89 Calm 30.03 1017 10 16.09344 0 0
8:48 am 08:48 Cloudy 73 23 70 21 89 89 E 5 7 30.03 1017 10 16.09344 0 0
8:52 am 08:52 Cloudy 73 23 70 21 89 89 Calm 30.03 1017 10 16.09344 0 0
9:35 am 09:35 Cloudy 77 25 72 22 83 83 E 7 11 30.03 1017 10 16.09344 0 0
9:52 am 09:52 Cloudy 79 26 72 22 79 79 ESE 5 7 30.03 1017 10 16.09344 0 0
10:31 am 10:31 Cloudy 79 26 72 22 79 79 SE 5 7 30.03 1017 10 16.09344 0 0
10:52 am 10:52 Cloudy 79 26 72 22 79 79 ESE 9 15 30.03 1017 10 16.09344 0 0
11:52 am 11:52 Cloudy 79 26 72 22 79 79 SE 9 15 30 1016 10 16.09344 0 0
12:52 pm 12:52 Cloudy 81 27 72 22 74 74 SE 9 15 29.97 1015 10 16.09344 0 0
1:52 pm 13:52 Cloudy 81 27 72 22 74 74 ESE 6 9 29.94 1014 10 16.09344 0 0
2:38 pm 14:38 Cloudy 81 27 72 22 74 74 SE 14 22 29.91 1013 10 16.09344 0 0
2:52 pm 14:52 Cloudy 81 27 72 22 74 74 ESE 10 17 29.91 1013 10 16.09344 0.001 0.001
3:10 pm 15:10 Cloudy with Light Rain 79 26 72 22 79 79 ESE 12 19 29.91 1013 10 16.09344 0 0
3:39 pm 15:39 Cloudy with Light Rain 79 26 72 22 79 79 ESE 9 15 29.88 1012 10 16.09344 0.001 0.001
3:52 pm 15:52 Mostly Cloudy with Light Rain 79 26 72 22 79 79 ESE 9 15 29.88 1012 10 16.09344 0.001 0.001
4:19 pm 16:19 Cloudy 79 26 72 22 79 79 ESE 8 13 29.88 1012 10 16.09344 0.001 0.001
4:52 pm 16:52 Cloudy with Light Rain 79 26 72 22 79 79 E 8 13 29.88 1012 10 16.09344 0.001 0.001
5:52 pm 17:52 Cloudy with Light Rain 75 24 73 23 94 94 E 7 11 29.85 1011 6 9.656064 0.08 2.032
6:52 pm 18:52 Cloudy with Rain 75 24 73 23 94 94 ENE 13 20 29.83 1010 5 8.04672 0.14 3.556
7:52 pm 19:52 Cloudy with Light Rain 75 24 73 23 94 94 E 15 24 29.77 1008 4 6.437376 0.23 5.842
7:54 pm 19:54 Cloudy with Rain 75 24 73 23 94 94 E 16 26 29.77 1008 5 8.04672 0 0
8:05 pm 20:05 Cloudy with Heavy Rain 75 24 73 23 94 94 E 16 26 29.8 1009 4 6.437376 0.07 1.778
8:08 pm 20:08 Cloudy with Rain 75 24 73 23 94 94 ESE 16 26 29.8 1009 4 6.437376 0 0
8:25 pm 20:25 Cloudy with Rain 73 23 73 23 100 100 ESE 8 13 29.8 1009 3 4.828032 0.18 4.572
8:28 pm 20:28 Cloudy with Rain 73 23 73 23 100 100 ESE 10 17 29.8 1009 4 6.437376 0 0
8:32 pm 20:32 Cloudy with Rain 75 24 73 23 94 94 ESE 12 19 29.8 1009 5 8.04672 0 0
8:52 pm 20:52 Cloudy with Rain 75 24 73 23 94 94 ESE 9 15 29.77 1008 4 6.437376 0.29 7.366
9:13 pm 21:13 Cloudy with Heavy Rain 73 23 73 23 100 100 SSE 3 6 29.77 1008 2.5 4.02336 0.11 2.794
9:15 pm 21:15 Cloudy with Heavy Rain 73 23 73 23 100 100 Calm 29.77 1008 2 3.218688 0 0
9:25 pm 21:25 Cloudy with Heavy Rain 73 23 73 23 100 100 E 5 7 29.77 1008 3 4.828032 0.2 5.08
9:36 pm 21:36 Cloudy with Heavy Rain 73 23 73 23 100 100 E 5 7 29.77 1008 2.5 4.02336 0.29 7.366
9:42 pm 21:42 Cloudy with Heavy Rain 73 23 73 23 100 100 E 7 11 29.77 1008 1.25 2.01168 0 0
9:52 pm 21:52 Cloudy with Heavy Rain 73 23 73 23 100 100 NNE 8 13 29.74 1007 1.25 2.01168 0.69 17.526
10:01 pm 22:01 Cloudy with Heavy Rain 73 23 73 23 100 100 N 5 7 29.74 1007 2.5 4.02336 0.12 3.048
10:05 pm 22:05 Cloudy with Heavy Rain 73 23 73 23 100 100 N 3 6 29.74 1007 3 4.828032 0.15 3.81
10:21 pm 22:21 Cloudy with Rain 73 23 73 23 100 100 S 12 19 29.74 1007 7 11.265408 0.21 5.334
10:32 pm 22:32 Cloudy with Light Rain 73 23 73 23 100 100 S 15 24 29.74 1007 10 16.09344 0 0
10:37 pm 22:37 Cloudy with Light Rain 73 23 73 23 100 100 S 13 20 29.74 1007 10 16.09344 0.22 5.588
10:45 pm 22:45 Cloudy 73 23 73 23 100 100 S 13 20 29.74 1007 10 16.09344 0.22 5.588
10:52 pm 22:52 Cloudy 73 23 73 23 100 100 S 13 20 29.74 1007 10 16.09344 0.22 5.588
11:29 pm 23:29 Cloudy 73 23 72 22 94 94 SSW 9 15 29.74 1007 10 16.09344 0 0
11:52 pm 23:52 Cloudy 73 23 73 23 100 100 SSW 7 11 29.74 1007 10 16.09344 0 0
11:59 pm 23:59 Cloudy 73 23 72 22 94 94 S 6 9 29.74 1007 10 16.09344 0 0

Powered by AerisWeather